Weather History for K2V5 - January, 2014

Change the Weather History Date:

Saturday, January 11, 2014

  Actual Average (KHEQ) Record (KHEQ)
Temperature  
Mean Temperature 40 °F -  
Max Temperature 54 °F 37 °F 55 °F (2014)
Min Temperature 26 °F 10 °F 21 °F (2015)
Degree Days  
Heating Degree Days 25    
Moisture  
Dew Point 22 °F    
Average Humidity 49    
Maximum Humidity 77    
Minimum Humidity 27    
Precipitation  
Precipitation 0.00 in - - ()
Sea Level Pressure  
Sea Level Pressure 29.83 in    
Wind  
Wind Speed 11 mph (WSW)    
Max Wind Speed 18 mph    
Max Gust Speed 25 mph    
Visibility 10 miles    
Events      
Averages and records for this station are not official NWS values.
T = Trace of Precipitation, MM = Missing Value Source: NWS Daily Summary

Daily Weather History Graph

Daily Weather History Graph

Search for Another Location

Airport or City:

Trip Planner

Search our weather history database for the weather conditions in past years. The results will help you decide how hot, cold, wet, or windy it might be!

Date:

Astronomy

Jan. 11, 2014 Rise Set
Actual Time 7:10 AM MST 4:43 PM MST
Civil Twilight 6:40 AM MST 5:13 PM MST
Nautical Twilight 6:06 AM MST 5:47 PM MST
Astronomical Twilight 5:34 AM MST 6:20 PM MST
Moon 1:29 PM MST (1/11) 3:17 AM MST (1/11)
Length of Visible Light 10h 33m
Length of Day
9h 33m
Waxing Gibbous, 83% of the Moon is Illuminated
Jan 11
Waxing Gibbous
Jan 15
Full
Jan 23
Last Quarter
Jan 30
New
Feb 6
First Quarter

Hourly Weather History & Observations

Time (MST) Temp. Windchill Dew Point Humidity Pressure Visibility Wind Dir Wind Speed Gust Speed Precip Events Conditions
12:15 AM 26.6 °F 18.2 °F 19.4 °F 74% 29.82 in 10.0 mi West 8.1 mph - N/A   Scattered Clouds
12:35 AM 26.4 °F 16.6 °F 19.9 °F 77% 29.82 in 10.0 mi West 10.4 mph - N/A   Mostly Cloudy
12:55 AM 28.6 °F 20.7 °F 21.2 °F 74% 29.82 in 10.0 mi West 8.1 mph - N/A   Mostly Cloudy
1:15 AM 37.0 °F 27.4 °F 23.0 °F 57% 29.82 in 10.0 mi WNW 17.3 mph 23.0 mph N/A   Mostly Cloudy
1:35 AM 37.2 °F 28.3 °F 22.8 °F 56% 29.83 in 10.0 mi WNW 15.0 mph 25.3 mph N/A   Overcast
1:55 AM 36.5 °F 27.8 °F 22.8 °F 58% 29.85 in 10.0 mi WNW 13.8 mph - N/A   Mostly Cloudy
2:15 AM 36.3 °F 28.0 °F 22.6 °F 58% 29.86 in 10.0 mi WNW 12.7 mph - N/A   Overcast
2:35 AM 35.1 °F 26.4 °F 22.5 °F 60% 29.87 in 10.0 mi WNW 12.7 mph - N/A   Mostly Cloudy
2:55 AM 34.0 °F 25.0 °F 22.1 °F 62% 29.87 in 10.0 mi WNW 12.7 mph - N/A   Scattered Clouds
3:15 AM 33.8 °F 23.5 °F 22.1 °F 62% 29.88 in 10.0 mi WNW 16.1 mph - N/A   Clear
3:35 AM 34.7 °F 25.1 °F 22.1 °F 60% 29.89 in 10.0 mi WNW 15.0 mph - N/A   Clear
3:55 AM 34.0 °F 24.6 °F 21.9 °F 61% 29.89 in 10.0 mi WNW 13.8 mph - N/A   Scattered Clouds
4:15 AM 33.4 °F 25.4 °F 22.1 °F 63% 29.90 in 10.0 mi West 10.4 mph - N/A   Overcast
4:35 AM 32.4 °F 23.5 °F 22.1 °F 66% 29.92 in 10.0 mi West 11.5 mph - N/A   Overcast
4:55 AM 32.9 °F 24.7 °F 22.3 °F 65% 29.92 in 10.0 mi West 10.4 mph - N/A   Overcast
5:15 AM 34.9 °F 26.2 °F 22.1 °F 60% 29.93 in 10.0 mi West 12.7 mph - N/A   Overcast
5:35 AM 34.2 °F 24.8 °F 22.1 °F 61% 29.94 in 10.0 mi West 13.8 mph - N/A   Overcast
5:55 AM 32.7 °F 24.5 °F 21.6 °F 64% 29.94 in 10.0 mi WNW 10.4 mph - N/A   Mostly Cloudy
6:15 AM 32.2 °F 22.7 °F 21.4 °F 64% 29.93 in 10.0 mi WNW 12.7 mph - N/A   Scattered Clouds
6:35 AM 32.0 °F 23.6 °F 21.0 °F 64% 29.92 in 10.0 mi NW 10.4 mph - N/A   Scattered Clouds
6:55 AM 32.4 °F 24.0 °F 20.8 °F 63% 29.92 in 10.0 mi NW 10.4 mph - N/A   Clear
7:15 AM 32.0 °F 24.2 °F 20.7 °F 63% 29.92 in 10.0 mi NW 9.2 mph - N/A   Clear
7:35 AM 29.7 °F 22.0 °F 20.1 °F 68% 29.92 in 10.0 mi NW 8.1 mph - N/A   Clear
7:55 AM 30.9 °F 22.8 °F 21.0 °F 67% 29.92 in 10.0 mi NNW 9.2 mph - N/A   Clear
8:15 AM 34.3 °F 28.4 °F 21.2 °F 59% 29.92 in 10.0 mi NW 6.9 mph - N/A   Clear
8:35 AM 37.6 °F 34.0 °F 21.9 °F 53% 29.94 in 10.0 mi West 4.6 mph - N/A   Clear
8:55 AM 39.4 °F 34.5 °F 21.7 °F 49% 29.94 in 10.0 mi NW 6.9 mph - N/A   Clear
9:15 AM 40.3 °F 34.4 °F 21.7 °F 48% 29.96 in 10.0 mi WSW 9.2 mph - N/A   Clear
9:35 AM 42.3 °F 36.3 °F 21.4 °F 43% 29.97 in 10.0 mi WSW 10.4 mph - N/A   Clear
9:55 AM 45.3 °F 40.6 °F 21.2 °F 38% 29.97 in 10.0 mi WSW 9.2 mph - N/A   Clear
10:15 AM 46.0 °F 41.9 °F 21.2 °F 37% 29.97 in 10.0 mi WSW 8.1 mph - N/A   Clear
10:35 AM 46.6 °F - 20.3 °F 35% 29.97 in 10.0 mi West 9.2 mph - N/A   Clear
10:55 AM 47.3 °F - 20.3 °F 34% 29.95 in 10.0 mi West 6.9 mph - N/A   Clear
11:15 AM 48.2 °F - 20.5 °F 33% 29.94 in 10.0 mi WSW 3.5 mph - N/A   Clear
11:35 AM 50.0 °F - 20.3 °F 31% 29.93 in 10.0 mi West 6.9 mph - N/A   Clear
11:55 AM 50.4 °F - 21.0 °F 32% 29.91 in 10.0 mi SSW 6.9 mph - N/A   Clear
12:15 PM 51.1 °F - 21.2 °F 31% 29.90 in 10.0 mi SW 10.4 mph - N/A   Clear
12:35 PM 51.6 °F - 21.2 °F 30% 29.89 in 10.0 mi SSW 10.4 mph 16.1 mph N/A   Clear
12:55 PM 52.9 °F - 21.7 °F 30% 29.88 in 10.0 mi SW 9.2 mph - N/A   Clear
1:15 PM 52.5 °F - 21.0 °F 29% 29.86 in 10.0 mi SW 13.8 mph 21.9 mph N/A   Clear
1:35 PM 53.2 °F - 21.2 °F 29% 29.85 in 10.0 mi SSW 15.0 mph 19.6 mph N/A   Clear
1:55 PM 53.6 °F - 21.2 °F 28% 29.84 in 10.0 mi SSW 17.3 mph 24.2 mph N/A   Clear
2:15 PM 53.6 °F - 21.2 °F 28% 29.83 in 10.0 mi SSW 15.0 mph 23.0 mph N/A   Clear
2:35 PM 54.5 °F - 21.2 °F 27% 29.82 in 10.0 mi South 15.0 mph 20.7 mph N/A   Clear
2:55 PM 54.9 °F - 21.4 °F 27% 29.81 in 10.0 mi South 13.8 mph 18.4 mph N/A   Clear
3:15 PM 54.9 °F - 21.0 °F 27% 29.81 in 10.0 mi SSW 18.4 mph 23.0 mph N/A   Clear
3:35 PM 53.6 °F - 21.0 °F 28% 29.81 in 10.0 mi SSW 16.1 mph 23.0 mph N/A   Clear
3:55 PM 52.2 °F - 21.2 °F 30% 29.80 in 10.0 mi SSW 17.3 mph 24.2 mph N/A   Clear
4:15 PM 50.4 °F - 21.2 °F 32% 29.79 in 10.0 mi South 10.4 mph - N/A   Clear
4:35 PM 48.4 °F - 21.4 °F 35% 29.78 in 10.0 mi South 10.4 mph - N/A   Clear
4:55 PM 46.0 °F 42.5 °F 22.1 °F 39% 29.78 in 10.0 mi SSW 6.9 mph - N/A   Clear
5:15 PM 44.6 °F 41.4 °F 22.1 °F 41% 29.77 in 10.0 mi South 5.8 mph - N/A   Clear
5:35 PM 43.9 °F 38.8 °F 21.7 °F 41% 29.76 in 10.0 mi SSW 9.2 mph - N/A   Clear
5:55 PM 43.3 °F 37.2 °F 22.1 °F 43% 29.76 in 10.0 mi SSW 11.5 mph 18.4 mph N/A   Clear
6:15 PM 42.3 °F 36.3 °F 22.6 °F 46% 29.75 in 10.0 mi SSW 10.4 mph - N/A   Clear
6:35 PM 42.1 °F 35.2 °F 23.0 °F 47% 29.74 in 10.0 mi SW 12.7 mph - N/A   Clear
6:55 PM 41.0 °F 34.3 °F 23.4 °F 50% 29.73 in 10.0 mi SSW 11.5 mph - N/A   Clear
7:15 PM 39.9 °F 32.9 °F 23.5 °F 52% 29.72 in 10.0 mi SW 11.5 mph - N/A   Clear
7:35 PM 40.1 °F 34.1 °F 23.9 °F 52% 29.72 in 10.0 mi SW 9.2 mph - N/A   Clear
7:55 PM 41.5 °F 38.6 °F 23.9 °F 50% 29.72 in 10.0 mi WSW 4.6 mph - N/A   Clear
8:15 PM 42.3 °F 36.3 °F 24.1 °F 49% 29.71 in 10.0 mi SW 10.4 mph - N/A   Clear
8:35 PM 40.3 °F 34.4 °F 24.6 °F 54% 29.70 in 10.0 mi WSW 9.2 mph - N/A   Clear
8:55 PM 40.1 °F 35.3 °F 24.6 °F 54% 29.68 in 10.0 mi SW 6.9 mph - N/A   Clear
9:15 PM 38.5 °F 32.7 °F 24.8 °F 58% 29.68 in 10.0 mi WSW 8.1 mph - N/A   Clear
9:35 PM 37.8 °F 31.8 °F 25.0 °F 60% 29.66 in 10.0 mi WSW 8.1 mph - N/A   Clear
9:55 PM 38.7 °F 32.4 °F 25.2 °F 58% 29.65 in 10.0 mi WSW 9.2 mph - N/A   Clear
10:15 PM 40.1 °F 33.6 °F 25.5 °F 56% 29.65 in 10.0 mi WSW 10.4 mph - N/A   Clear
10:35 PM 42.1 °F 36.6 °F 25.7 °F 52% 29.64 in 10.0 mi SW 9.2 mph - N/A   Clear
10:55 PM 44.4 °F 37.5 °F 26.1 °F 49% 29.63 in 10.0 mi WSW 15.0 mph - N/A   Clear
11:15 PM 44.8 °F 38.0 °F 26.1 °F 48% 29.61 in 10.0 mi WSW 15.0 mph - N/A   Clear
11:35 PM 44.2 °F 37.0 °F 26.4 °F 50% 29.61 in 10.0 mi WSW 16.1 mph 20.7 mph N/A   Clear
11:55 PM 43.2 °F 36.2 °F 26.6 °F 52% 29.60 in 10.0 mi WSW 13.8 mph - N/A   Clear